Temperature
15 14 15 15 15 14 13 13 12 11 10 9 8 8 7 7 6 6 6 5 5 4 4 3 3 2 2 1 0 -0 -1 -2 -3 -3 -3 -3 -2 -2 -3 -3 -3 -4 -4
15 13 14 15 15 15 14 14 13 12 11 10 9 9 8 7 7 6 6 5 5 4 4 3 3 2 2 1 1 -0 -1 -2 -3 -4 -5 -4 -3 -3 -3 -3 -4 -4 -4
14 13 13 15 16 15 15 15 14 13 12 11 10 8 8 7 7 7 7 6 5 5 4 4 3 2 2 1 1 -0 -1 -2 -3 -4 -5 -5 -3 -4 -5 -4 -4 -4 -5
14 14 14 15 16 16 16 15 15 14 13 12 11 10 9 9 9 8 8 7 6 5 4 4 3 2 2 1 1 -0 -1 -2 -3 -4 -5 -5 -6 -6 -6 -5 -5 -5 -5
15 15 15 16 17 16 16 16 15 14 14 13 12 11 10 10 9 7 7 7 7 6 5 4 3 3 2 2 1 -0 -1 -2 -2 -4 -5 -6 -6 -7 -8 -7 -6 -5 -5
15 16 17 17 17 17 17 16 16 15 14 14 13 12 12 11 9 8 7 7 7 6 6 5 4 3 2 2 1 0 -1 -2 -2 -3 -5 -6 -6 -7 -7 -7 -7 -6 -6
16 16 17 17 17 17 17 17 16 16 15 15 14 14 13 12 10 9 7 7 7 7 7 5 4 3 3 2 1 -0 -1 -2 -2 -3 -4 -5 -6 -6 -7 -7 -7 -7 -7
16 16 16 17 17 17 17 17 17 16 16 15 15 15 14 12 11 10 8 7 7 7 6 5 4 3 2 1 1 -0 -1 -2 -2 -3 -4 -5 -5 -6 -7 -8 -8 -8 -7
15 15 15 16 16 17 17 16 16 16 16 16 15 15 14 13 13 11 9 7 7 6 5 4 4 3 2 1 0 -0 -1 -2 -2 -3 -4 -5 -5 -6 -7 -8 -8 -9 -8
14 14 14 15 15 15 16 16 16 16 15 15 14 14 13 13 12 10 9 8 7 5 4 4 3 2 1 1 -0 -1 -1 -2 -3 -3 -4 -5 -5 -6 -7 -8 -8 -9 -9
13 13 14 14 14 15 15 15 15 15 15 14 14 13 13 12 11 11 10 8 6 5 4 3 2 2 1 0 -0 -1 -1 -2 -3 -3 -4 -4 -5 -6 -7 -8 -8 -9 -9
13 13 13 13 13 14 14 14 14 14 14 14 13 13 13 12 11 11 10 8 6 5 3 2 1 1 0 -0 -1 -1 -1 -2 -3 -3 -4 -4 -5 -6 -7 -8 -8 -9 -9
12 12 12 13 13 13 13 13 13 13 13 13 13 13 12 12 11 10 9 7 5 4 2 1 1 0 -0 -1 -1 -1 -2 -2 -3 -3 -4 -4 -5 -6 -7 -7 -8 -8 -9
12 12 12 12 12 12 12 12 12 12 12 12 12 12 12 11 10 9 8 6 4 3 2 1 0 -0 -1 -2 -2 -2 -2 -3 -3 -4 -4 -4 -5 -6 -6 -7 -8 -8 -9
11 11 11 11 11 11 11 11 10 11 10 11 11 11 10 10 9 8 7 5 4 2 1 -0 -1 -1 -2 -2 -2 -2 -2 -3 -3 -4 -4 -4 -5 -6 -6 -7 -7 -8 -8
11 11 10 10 10 9 9 9 9 9 9 10 10 10 9 9 8 7 6 4 3 1 -1 -1 -2 -2 -2 -2 -3 -3 -3 -3 -4 -4 -4 -5 -5 -6 -7 -7 -8 -8 -8
10 10 9 9 8 8 8 8 8 8 9 9 9 9 9 8 7 6 5 4 2 0 -1 -2 -3 -3 -2 -2 -3 -3 -3 -4 -4 -4 -5 -5 -5 -6 -7 -7 -8 -8 -8
9 9 8 8 7 7 7 7 8 8 8 8 8 8 7 7 6 5 4 3 1 -1 -2 -3 -3 -3 -3 -3 -3 -4 -4 -5 -4 -5 -5 -5 -6 -6 -7 -8 -8 -8 -8
8 7 7 7 6 6 6 6 7 7 7 7 7 6 6 5 5 4 3 1 -0 -2 -3 -4 -4 -4 -3 -3 -4 -4 -5 -5 -5 -5 -5 -5 -6 -6 -7 -8 -8 -8 -8
7 6 6 6 6 6 6 6 6 6 5 5 5 5 5 4 4 3 2 0 -1 -2 -4 -4 -4 -4 -4 -4 -4 -5 -5 -5 -5 -5 -5 -5 -6 -6 -7 -8 -8 -8 -8
6 6 5 5 5 5 5 5 5 4 4 4 4 4 4 3 3 2 1 -1 -2 -3 -4 -5 -5 -5 -4 -4 -5 -5 -5 -5 -5 -6 -6 -6 -6 -7 -8 -8 -8 -8 -8
5 5 5 5 5 5 4 3 3 3 3 3 3 3 3 2 2 1 -0 -2 -3 -4 -5 -6 -6 -5 -5 -5 -5 -5 -5 -5 -6 -6 -6 -6 -7 -7 -8 -8 -8 -9 -9
5 4 4 4 4 3 3 2 2 2 2 2 2 2 2 2 1 0 -1 -2 -4 -5 -5 -6 -6 -6 -5 -5 -5 -5 -5 -6 -6 -6 -6 -7 -7 -8 -8 -8 -9 -9 -10
4 3 3 3 3 2 2 2 1 1 1 1 1 1 1 1 0 -1 -2 -3 -4 -5 -6 -6 -6 -6 -6 -5 -5 -5 -6 -6 -6 -7 -7 -7 -8 -8 -8 -9 -9 -10 -10
3 3 2 2 1 1 1 1 1 0 0 0 0 0 -0 -0 -1 -2 -2 -3 -4 -4 -5 -6 -6 -6 -6 -5 -5 -5 -6 -6 -6 -7 -7 -8 -8 -9 -9 -9 -10 -10 -11
2 2 1 1 1 1 1 1 1 0 -0 -0 -0 -0 -1 -1 -2 -2 -3 -3 -4 -5 -6 -6 -6 -6 -6 -6 -6 -6 -6 -6 -7 -7 -8 -8 -9 -9 -9 -10 -10 -10 -11
Wind_Speed
20 17 19 21 21 21 23 23 24 23 20 17 16 16 16 14 15 18 21 22 21 21 20 15 15 15 11 11 11 10 10 9 7 8 9 10 11 11 9 10 11 12 13
16 15 16 19 22 23 24 24 25 24 24 19 17 14 14 13 15 17 20 23 23 23 21 20 15 15 12 13 13 12 9 8 8 6 6 6 6 8 8 9 10 11 12
13 14 16 19 20 23 25 22 25 25 25 22 16 13 12 11 14 17 16 22 25 25 23 22 19 17 15 13 14 14 14 10 9 9 7 6 6 6 7 10 10 11 10
8 10 13 17 20 22 20 22 23 24 24 23 21 22 19 20 20 17 17 20 25 26 26 24 22 19 16 15 15 15 13 13 10 9 10 11 8 7 6 7 9 11 13
6 7 11 14 16 17 18 20 22 23 24 25 25 24 24 22 18 17 19 20 21 25 26 26 23 20 17 17 16 15 15 13 13 11 9 11 11 12 11 11 11 11 11
9 6 6 9 12 14 16 18 21 23 23 25 26 27 28 26 23 22 20 18 16 18 25 25 23 21 18 18 17 16 17 15 15 13 11 11 10 10 11 13 14 14 13
11 9 7 6 9 13 16 17 20 22 23 25 27 28 29 28 27 25 22 20 17 18 22 22 22 20 21 20 18 17 17 18 17 16 13 12 13 12 12 13 14 16 15
14 12 9 7 8 11 14 17 20 22 22 24 26 26 27 22 21 25 22 21 19 19 21 23 22 23 22 20 19 16 17 16 17 17 17 13 13 13 13 13 14 15 16
16 14 12 10 8 8 11 14 18 20 21 23 24 24 25 25 25 24 23 21 20 18 21 22 23 22 22 21 19 16 18 16 17 17 17 15 13 13 13 13 14 14 16
17 15 13 12 10 8 8 11 15 18 18 20 21 19 23 24 24 22 24 23 22 21 21 22 22 22 22 21 20 17 17 18 17 14 16 16 14 13 13 13 14 14 16
16 14 13 12 11 9 8 9 11 14 15 17 18 20 21 22 23 23 24 24 22 22 22 22 22 22 22 22 20 20 19 19 18 17 17 18 17 14 13 13 14 15 15
13 13 13 13 13 12 10 9 10 12 14 14 16 18 19 20 22 23 24 23 23 22 22 22 22 22 22 22 22 21 20 20 19 19 18 18 15 17 15 14 16 15 16
13 14 15 16 16 15 14 12 11 12 12 12 15 17 18 20 22 22 21 21 22 22 22 22 23 22 22 22 21 21 20 20 19 19 19 18 17 18 16 16 16 15 15
13 16 18 19 19 18 17 16 15 13 12 12 14 16 18 19 20 19 19 20 21 22 22 23 23 22 21 20 19 19 19 19 19 18 18 18 18 18 17 15 17 16 17
16 19 20 21 21 21 20 18 17 15 12 13 14 16 16 17 17 18 19 19 20 21 21 21 22 21 19 18 19 19 19 18 18 18 18 18 20 22 19 15 16 16 15
19 22 22 22 22 21 20 19 18 16 14 14 15 16 15 15 16 17 17 18 19 19 20 22 22 21 18 24 28 22 17 18 18 17 17 17 20 23 26 27 26 23 19
22 22 22 21 20 20 19 19 18 17 15 15 15 15 14 15 15 15 16 18 19 19 21 21 22 22 23 27 28 29 19 18 17 17 16 14 15 19 17 21 24 25 27
22 22 20 20 19 19 18 17 17 16 15 15 15 14 14 15 15 15 16 17 16 17 18 20 21 20 21 27 28 28 22 18 17 17 17 16 16 15 17 16 17 18 19
20 19 19 19 19 18 17 16 17 17 16 15 16 15 14 15 15 15 16 15 15 16 17 18 19 20 20 26 27 26 17 16 18 16 16 16 16 20 21 17 17 18 17
18 18 18 19 19 18 17 18 18 18 17 17 17 16 15 15 15 15 15 14 14 15 15 16 18 19 18 22 26 26 14 15 14 14 14 20 19 20 21 16 16 17 16
18 18 18 18 18 19 18 18 19 19 18 18 18 17 16 15 15 14 13 13 12 13 14 15 16 17 18 20 24 26 16 14 13 12 11 12 19 21 21 19 15 17 15
18 19 18 19 18 18 18 19 20 19 19 18 18 17 16 13 11 12 12 11 12 13 13 14 14 13 14 17 20 26 24 19 14 12 10 11 16 18 19 16 15 18 16
19 18 19 20 19 18 18 20 20 19 19 18 18 17 15 13 11 11 11 10 11 11 11 11 12 11 11 13 21 23 24 24 15 11 14 15 16 15 13 14 16 14 10
19 19 19 20 20 20 19 19 20 19 18 18 18 16 14 13 11 9 9 9 10 10 11 11 11 10 10 10 11 12 14 18 16 12 13 15 14 11 11 12 11 9 9
18 18 18 19 21 21 20 19 18 18 17 17 16 15 12 12 11 9 9 10 11 11 11 10 10 10 10 12 16 12 11 11 11 10 8 7 7 8 8 8 8 8 8
19 18 19 20 21 21 21 19 18 16 16 15 14 12 11 10 9 9 9 12 13 15 18 17 13 11 13 13 16 18 16 16 15 11 8 8 8 8 8 8 8 8 8
Wind_Direction
242 227 214 210 208 207 207 206 205 206 203 204 207 209 214 215 216 217 216 213 211 209 211 213 213 211 216 218 221 226 233 237 243 263 271 267 256 252 252 254 258 264 268
245 224 211 207 207 207 207 207 208 206 205 207 207 211 217 221 220 219 219 216 214 212 211 214 213 211 216 219 220 221 229 234 228 243 272 280 262 234 244 252 258 265 269
252 228 213 211 209 210 209 208 208 208 207 207 207 210 215 222 219 220 219 217 215 213 213 214 215 214 214 218 217 217 222 229 226 226 239 259 270 286 263 258 257 263 267
264 240 220 215 214 215 212 212 212 211 209 206 209 209 212 219 222 220 220 218 215 215 214 215 215 216 216 219 218 217 221 227 233 227 230 241 258 266 279 266 261 264 268
313 264 237 227 223 218 214 214 215 215 212 210 213 216 223 228 229 224 223 220 216 215 215 214 214 216 217 219 218 217 219 221 229 231 231 237 245 244 252 272 278 275 271
347 316 268 241 231 220 216 215 216 219 215 214 216 219 225 227 227 225 223 220 218 215 215 214 214 215 216 218 218 218 220 222 226 231 233 236 239 242 246 260 273 279 281
355 345 321 267 239 224 219 218 219 223 219 218 220 223 227 228 229 228 226 222 220 217 214 211 213 214 216 216 216 218 220 222 225 228 232 235 240 247 252 260 270 277 282
355 345 332 299 262 238 224 220 222 226 223 222 224 226 228 230 233 231 228 226 224 222 216 212 213 213 213 214 214 218 221 223 226 230 232 237 241 243 247 254 266 276 280
346 341 336 324 299 267 240 228 227 230 227 226 227 229 229 229 232 233 232 231 229 225 218 213 213 213 212 212 212 217 219 221 225 229 231 235 240 243 246 249 252 262 276
342 341 340 336 324 302 274 247 237 238 237 233 232 233 232 232 234 234 233 231 230 225 221 216 213 212 212 211 212 217 220 221 225 228 233 236 240 243 245 247 250 251 259
342 344 343 340 333 321 301 275 256 250 247 241 238 237 237 236 235 234 235 233 231 226 222 218 214 212 211 210 211 215 216 220 225 226 231 235 238 242 245 247 249 251 254
343 344 345 344 342 335 321 298 275 261 255 249 244 243 242 239 237 236 235 233 231 227 223 219 216 214 212 210 211 214 215 218 223 227 230 235 236 240 244 247 250 252 254
343 346 347 345 340 334 325 312 294 279 270 259 251 249 245 241 240 240 238 234 231 229 224 220 218 215 213 211 212 214 216 219 223 227 229 233 235 240 243 245 250 253 256
340 342 341 338 334 329 325 318 309 298 284 270 259 255 251 247 245 244 240 235 231 229 225 221 220 217 214 212 211 212 216 220 224 228 231 233 234 238 243 247 250 254 258
336 337 334 331 328 326 324 322 315 309 297 280 269 263 261 256 251 246 241 236 232 230 226 223 221 218 214 211 208 210 214 219 224 229 231 233 235 238 241 244 249 252 255
329 329 327 325 324 322 321 318 316 313 305 289 279 275 269 261 254 249 244 239 234 230 227 224 222 218 215 214 211 209 214 218 223 229 232 235 240 244 248 251 255 256 260
324 323 322 321 319 319 318 316 313 310 304 293 286 281 274 266 258 251 244 239 235 230 227 225 222 221 218 215 215 213 212 218 222 226 231 235 239 244 248 256 260 264 265
320 320 319 318 316 315 314 313 310 307 303 298 294 289 282 273 266 256 248 242 237 232 229 226 223 222 220 216 217 216 215 221 225 227 231 237 242 243 247 253 258 261 262
316 316 316 315 313 312 314 313 309 308 306 304 302 298 290 280 271 261 254 246 238 234 230 227 223 222 220 217 217 217 218 223 226 228 231 236 242 247 251 256 260 264 266
315 316 315 314 312 315 318 312 309 309 308 309 307 302 294 285 275 266 259 249 240 236 231 229 224 222 220 216 216 216 217 222 225 228 230 235 240 248 253 256 261 267 272
314 315 314 313 313 316 316 310 309 310 312 310 306 303 297 289 280 273 262 251 241 235 231 230 226 223 221 218 216 215 212 219 224 227 230 232 240 248 255 259 264 269 276
315 317 315 312 313 314 312 309 309 312 313 310 306 304 301 295 283 273 264 250 238 233 231 229 227 224 221 219 218 217 218 218 222 227 232 235 242 251 257 262 266 275 282
314 315 314 311 311 312 312 308 310 313 312 309 307 306 303 296 285 273 263 250 236 231 229 227 225 222 217 217 219 220 222 223 222 228 233 239 247 254 260 263 270 275 275
313 314 313 310 311 313 311 307 309 312 311 308 308 307 303 297 287 272 257 246 237 230 227 226 225 221 215 211 210 214 223 226 228 234 237 241 248 251 256 264 267 263 264
310 311 308 307 308 311 310 310 310 312 310 308 306 305 301 296 290 276 261 250 241 234 228 228 225 220 218 212 204 203 209 212 217 216 223 229 236 242 249 254 257 258 261
309 307 306 307 309 311 310 310 311 311 308 306 305 304 302 297 288 283 274 251 246 245 238 235 232 228 228 218 210 210 211 212 210 211 223 228 235 243 251 256 259 260 262
Height
1489 1491 1492 1495 1498 1500 1503 1506 1508 1511 1513 1514 1515 1516 1517 1519 1521 1522 1523 1524 1524 1524 1524 1524 1524 1523 1523 1522 1522 1521 1519 1518 1517 1515 1513 1510 1508 1505 1503 1501 1499 1496 1493
1482 1483 1484 1487 1489 1492 1495 1498 1500 1503 1505 1506 1508 1510 1512 1512 1513 1514 1514 1515 1515 1516 1516 1516 1516 1515 1515 1515 1514 1514 1513 1512 1511 1510 1509 1507 1505 1500 1498 1495 1492 1490 1488
1475 1477 1477 1480 1483 1485 1488 1491 1493 1496 1497 1500 1502 1502 1503 1502 1503 1502 1503 1505 1506 1507 1507 1507 1508 1507 1507 1507 1506 1506 1506 1505 1505 1503 1504 1503 1499 1497 1493 1490 1487 1484 1482
1471 1472 1473 1474 1477 1480 1483 1485 1488 1489 1491 1492 1492 1491 1491 1490 1490 1492 1493 1495 1496 1496 1497 1498 1498 1498 1498 1498 1498 1498 1498 1498 1497 1496 1495 1495 1494 1492 1487 1484 1482 1479 1476
1470 1470 1470 1472 1474 1476 1478 1479 1481 1482 1483 1483 1482 1482 1481 1481 1483 1483 1483 1483 1484 1485 1486 1487 1488 1488 1488 1489 1489 1489 1489 1489 1489 1488 1488 1487 1486 1484 1482 1477 1475 1473 1470
1471 1470 1469 1469 1470 1471 1472 1473 1473 1474 1474 1474 1473 1472 1472 1472 1472 1472 1471 1471 1471 1472 1473 1475 1476 1477 1478 1479 1479 1480 1479 1479 1480 1480 1479 1479 1478 1477 1475 1471 1467 1465 1462
1472 1470 1469 1468 1468 1467 1467 1467 1466 1466 1466 1465 1464 1463 1462 1462 1461 1461 1460 1460 1459 1458 1460 1462 1464 1465 1467 1468 1469 1470 1470 1470 1470 1470 1470 1469 1468 1468 1467 1464 1460 1457 1453
1472 1470 1468 1466 1465 1463 1462 1461 1460 1459 1459 1457 1455 1454 1453 1452 1450 1450 1449 1447 1446 1447 1449 1450 1452 1454 1456 1457 1459 1459 1460 1460 1460 1461 1461 1460 1459 1459 1458 1456 1454 1449 1444
1472 1468 1465 1463 1461 1459 1457 1456 1454 1453 1451 1449 1448 1445 1444 1441 1440 1439 1438 1436 1435 1436 1437 1438 1440 1442 1444 1446 1447 1448 1449 1450 1450 1451 1451 1450 1450 1450 1449 1448 1446 1444 1437
1470 1466 1463 1460 1457 1455 1453 1451 1449 1447 1445 1442 1439 1437 1434 1432 1430 1428 1426 1425 1425 1425 1425 1426 1427 1430 1432 1434 1436 1437 1439 1440 1440 1441 1441 1441 1441 1440 1440 1438 1437 1435 1430
1469 1465 1461 1458 1455 1452 1450 1447 1444 1441 1438 1435 1432 1428 1425 1422 1420 1417 1414 1414 1413 1413 1413 1414 1416 1417 1420 1422 1424 1425 1427 1429 1430 1431 1431 1431 1431 1430 1430 1429 1427 1425 1422
1468 1464 1461 1457 1453 1450 1447 1443 1440 1436 1433 1429 1425 1421 1417 1413 1409 1406 1404 1402 1401 1401 1401 1402 1403 1405 1407 1410 1412 1414 1416 1417 1419 1420 1421 1421 1421 1420 1420 1419 1417 1415 1413
1466 1463 1459 1455 1451 1447 1443 1439 1435 1431 1426 1422 1417 1412 1408 1403 1399 1396 1393 1391 1390 1389 1389 1390 1390 1393 1395 1398 1400 1403 1406 1407 1409 1410 1410 1411 1411 1410 1410 1409 1408 1406 1404
1465 1461 1457 1453 1449 1444 1439 1434 1429 1424 1419 1413 1408 1403 1399 1394 1390 1386 1383 1380 1379 1378 1377 1378 1379 1382 1385 1387 1390 1393 1395 1397 1399 1400 1400 1401 1401 1401 1401 1400 1398 1397 1395
1462 1458 1454 1449 1444 1439 1434 1428 1423 1417 1411 1405 1399 1394 1390 1385 1380 1376 1372 1370 1368 1366 1367 1367 1368 1370 1373 1375 1378 1381 1384 1386 1388 1390 1390 1391 1391 1391 1391 1390 1388 1387 1385
1459 1454 1450 1444 1439 1433 1427 1421 1415 1409 1403 1397 1391 1386 1380 1375 1370 1366 1363 1360 1357 1356 1356 1356 1357 1359 1361 1364 1368 1371 1374 1376 1378 1380 1381 1381 1381 1381 1381 1381 1380 1379 1377
1455 1450 1445 1439 1433 1427 1421 1414 1408 1402 1396 1389 1383 1377 1371 1366 1361 1356 1352 1349 1347 1346 1344 1345 1346 1348 1350 1354 1358 1362 1364 1366 1368 1370 1371 1371 1371 1372 1372 1371 1370 1369 1367
1449 1444 1438 1433 1427 1421 1414 1408 1401 1395 1388 1381 1375 1369 1363 1357 1352 1346 1342 1339 1337 1336 1335 1335 1336 1338 1341 1345 1349 1352 1355 1357 1359 1360 1362 1362 1362 1363 1363 1362 1360 1358 1356
1444 1439 1433 1427 1420 1414 1408 1400 1394 1387 1381 1374 1368 1361 1355 1348 1343 1338 1334 1331 1328 1326 1325 1326 1327 1328 1332 1336 1340 1344 1346 1347 1349 1351 1352 1353 1353 1354 1354 1353 1351 1348 1346
1438 1432 1426 1420 1414 1407 1400 1393 1386 1379 1373 1366 1360 1353 1347 1340 1334 1329 1325 1322 1320 1318 1318 1317 1318 1320 1323 1327 1331 1335 1337 1339 1341 1342 1343 1344 1345 1345 1345 1345 1343 1340 1338
1432 1426 1420 1413 1407 1400 1393 1385 1378 1372 1365 1358 1352 1345 1339 1333 1327 1322 1318 1314 1312 1311 1310 1310 1311 1312 1315 1318 1322 1326 1328 1330 1332 1334 1335 1336 1337 1337 1337 1337 1335 1333 1331
1425 1419 1413 1406 1400 1393 1385 1377 1371 1365 1358 1350 1344 1337 1331 1325 1320 1315 1310 1307 1305 1304 1303 1303 1304 1305 1307 1310 1313 1317 1320 1323 1325 1326 1327 1328 1329 1329 1329 1329 1327 1326 1324
1419 1413 1406 1398 1392 1386 1379 1371 1363 1357 1349 1343 1336 1330 1324 1318 1313 1308 1304 1301 1299 1297 1296 1297 1297 1298 1300 1303 1306 1309 1312 1316 1317 1319 1320 1321 1322 1322 1321 1321 1319 1318 1316
1412 1405 1398 1390 1383 1377 1371 1364 1357 1350 1342 1336 1329 1323 1317 1311 1306 1302 1298 1295 1292 1290 1290 1290 1291 1292 1294 1296 1299 1302 1306 1309 1311 1313 1314 1315 1315 1315 1314 1313 1312 1310 1309
1405 1398 1390 1382 1375 1369 1363 1357 1350 1343 1336 1329 1323 1317 1311 1305 1300 1295 1292 1289 1286 1285 1284 1284 1286 1287 1288 1290 1293 1296 1299 1302 1304 1306 1307 1308 1308 1308 1307 1306 1305 1304 1302
1397 1390 1383 1376 1368 1362 1355 1349 1343 1337 1330 1323 1317 1311 1305 1300 1294 1290 1286 1282 1281 1279 1279 1279 1281 1282 1284 1287 1289 1291 1294 1297 1299 1301 1301 1301 1301 1301 1301 1300 1299 1297 1296